QPF
0.00 0.00 0.03 0.08 0.10 0.09 0.03 0.01 0.00 0.01 0.01 0.00 0.00 0.00 0.00 0.01 0.04 0.07 0.06 0.06 0.07 0.07 0.07 0.07 0.07 0.10 0.15 0.15 0.15 0.12 0.10 0.10 0.10 0.09 0.09 0.11 0.15 0.18 0.14 0.13 0.15 0.19 0.22 0.22 0.21 0.17 0.17 0.13 0.11
0.00 0.00 0.01 0.05 0.10 0.05 0.03 0.01 0.01 0.01 0.00 0.00 0.00 0.00 0.01 0.00 0.01 0.03 0.05 0.06 0.07 0.06 0.07 0.06 0.05 0.05 0.11 0.13 0.14 0.14 0.11 0.09 0.09 0.08 0.08 0.08 0.13 0.21 0.21 0.16 0.15 0.17 0.21 0.23 0.21 0.15 0.13 0.09 0.07
0.00 0.01 0.03 0.06 0.05 0.03 0.02 0.01 0.01 0.00 0.00 0.00 0.00 0.00 0.00 0.01 0.01 0.03 0.03 0.03 0.06 0.06 0.06 0.07 0.06 0.06 0.10 0.11 0.13 0.12 0.10 0.09 0.08 0.08 0.07 0.06 0.09 0.15 0.20 0.18 0.15 0.16 0.21 0.23 0.22 0.18 0.14 0.09 0.07
0.01 0.03 0.04 0.05 0.02 0.00 0.00 0.00 0.01 0.01 0.00 0.01 0.01 0.01 0.01 0.01 0.01 0.01 0.01 0.02 0.05 0.05 0.05 0.07 0.07 0.08 0.09 0.11 0.12 0.11 0.09 0.09 0.09 0.08 0.07 0.07 0.07 0.10 0.17 0.17 0.18 0.19 0.22 0.24 0.22 0.19 0.14 0.10 0.09
0.01 0.04 0.04 0.02 0.01 0.00 0.00 0.00 0.01 0.01 0.01 0.01 0.01 0.02 0.02 0.02 0.00 0.00 0.00 0.02 0.04 0.05 0.06 0.08 0.10 0.10 0.07 0.08 0.10 0.09 0.07 0.08 0.09 0.09 0.08 0.07 0.07 0.08 0.14 0.14 0.16 0.22 0.22 0.21 0.20 0.16 0.11 0.09 0.09
0.03 0.05 0.04 0.01 0.00 0.00 0.00 0.00 0.00 0.00 0.00 0.00 0.01 0.02 0.02 0.01 0.01 0.00 0.00 0.01 0.02 0.03 0.05 0.08 0.12 0.12 0.09 0.08 0.06 0.06 0.06 0.06 0.06 0.07 0.07 0.05 0.06 0.08 0.14 0.18 0.21 0.20 0.16 0.18 0.18 0.15 0.11 0.08 0.08
0.06 0.05 0.02 0.01 0.01 0.01 0.00 0.00 0.00 0.00 0.00 0.00 0.00 0.01 0.01 0.02 0.01 0.01 0.01 0.01 0.02 0.03 0.04 0.05 0.09 0.11 0.11 0.09 0.07 0.07 0.07 0.05 0.05 0.06 0.07 0.06 0.05 0.08 0.14 0.16 0.16 0.17 0.17 0.18 0.17 0.15 0.12 0.08 0.07
0.07 0.04 0.01 0.01 0.01 0.00 0.00 0.00 0.00 0.00 0.00 0.00 0.00 0.00 0.01 0.01 0.01 0.01 0.00 0.01 0.02 0.03 0.03 0.04 0.05 0.07 0.06 0.06 0.06 0.05 0.05 0.04 0.05 0.06 0.08 0.08 0.08 0.09 0.12 0.10 0.08 0.11 0.13 0.14 0.13 0.13 0.10 0.07 0.07
0.03 0.02 0.01 0.00 0.00 0.00 0.00 0.00 0.00 0.00 0.00 0.00 0.00 0.00 0.01 0.01 0.01 0.01 0.01 0.02 0.03 0.03 0.04 0.04 0.04 0.05 0.05 0.04 0.03 0.04 0.04 0.04 0.05 0.06 0.07 0.08 0.08 0.09 0.12 0.08 0.06 0.06 0.08 0.09 0.08 0.08 0.07 0.06 0.07
0.02 0.01 0.01 0.00 0.00 0.00 0.00 0.00 0.00 0.00 0.00 0.00 0.00 0.00 0.01 0.01 0.01 0.01 0.02 0.02 0.03 0.02 0.03 0.05 0.05 0.04 0.05 0.03 0.03 0.04 0.04 0.04 0.05 0.06 0.06 0.06 0.07 0.08 0.07 0.07 0.06 0.05 0.05 0.05 0.05 0.06 0.06 0.06 0.08
0.00 0.00 0.00 0.00 0.00 0.00 0.00 0.00 0.00 0.00 0.01 0.00 0.00 0.01 0.01 0.01 0.01 0.02 0.01 0.01 0.01 0.01 0.02 0.05 0.05 0.04 0.04 0.04 0.03 0.02 0.03 0.05 0.05 0.06 0.08 0.07 0.07 0.07 0.06 0.06 0.07 0.06 0.05 0.06 0.06 0.06 0.05 0.05 0.06
0.00 0.00 0.00 0.00 0.00 0.00 0.00 0.00 0.00 0.00 0.00 0.00 0.00 0.01 0.01 0.01 0.01 0.02 0.01 0.01 0.01 0.02 0.03 0.04 0.04 0.04 0.04 0.03 0.02 0.01 0.02 0.04 0.04 0.07 0.10 0.07 0.06 0.06 0.06 0.05 0.05 0.05 0.04 0.06 0.07 0.07 0.05 0.05 0.04
0.00 0.00 0.00 0.00 0.00 0.00 0.00 0.00 0.00 0.00 0.00 0.00 0.00 0.01 0.01 0.01 0.01 0.01 0.01 0.01 0.01 0.02 0.04 0.04 0.03 0.04 0.04 0.04 0.03 0.02 0.03 0.03 0.03 0.07 0.11 0.08 0.06 0.06 0.06 0.07 0.06 0.05 0.04 0.05 0.07 0.05 0.06 0.06 0.05
0.00 0.00 0.00 0.00 0.00 0.00 0.00 0.00 0.00 0.00 0.00 0.00 0.00 0.00 0.01 0.01 0.01 0.01 0.02 0.02 0.02 0.02 0.03 0.03 0.03 0.04 0.03 0.03 0.03 0.02 0.02 0.02 0.03 0.06 0.11 0.09 0.07 0.07 0.07 0.07 0.07 0.06 0.05 0.05 0.06 0.05 0.05 0.06 0.06
0.00 0.01 0.01 0.00 0.00 0.00 0.00 0.00 0.00 0.00 0.00 0.00 0.00 0.00 0.00 0.01 0.01 0.02 0.02 0.02 0.02 0.01 0.02 0.02 0.03 0.04 0.04 0.04 0.03 0.01 0.01 0.01 0.03 0.05 0.11 0.10 0.06 0.07 0.07 0.08 0.08 0.06 0.05 0.05 0.06 0.05 0.06 0.06 0.07
0.01 0.04 0.02 0.01 0.00 0.00 0.01 0.01 0.01 0.00 0.00 0.00 0.00 0.00 0.00 0.01 0.02 0.02 0.01 0.01 0.02 0.02 0.02 0.03 0.04 0.04 0.04 0.05 0.04 0.01 0.00 0.01 0.03 0.04 0.10 0.09 0.07 0.07 0.07 0.08 0.07 0.05 0.04 0.06 0.07 0.08 0.08 0.08 0.08
0.01 0.04 0.04 0.02 0.00 0.00 0.00 0.01 0.01 0.00 0.00 0.00 0.00 0.00 0.01 0.01 0.02 0.02 0.02 0.02 0.02 0.03 0.03 0.04 0.05 0.05 0.05 0.04 0.04 0.04 0.02 0.04 0.05 0.04 0.06 0.07 0.07 0.06 0.07 0.09 0.07 0.04 0.05 0.06 0.06 0.09 0.09 0.08 0.08
0.01 0.02 0.02 0.01 0.00 0.00 0.00 0.00 0.00 0.00 0.00 0.00 0.00 0.00 0.01 0.01 0.02 0.03 0.03 0.02 0.02 0.04 0.05 0.04 0.05 0.06 0.06 0.05 0.06 0.06 0.06 0.07 0.06 0.05 0.06 0.06 0.06 0.06 0.07 0.08 0.07 0.05 0.06 0.06 0.07 0.08 0.08 0.08 0.08
0.00 0.00 0.01 0.01 0.00 0.00 0.00 0.00 0.00 0.00 0.01 0.01 0.00 0.00 0.00 0.01 0.01 0.01 0.01 0.01 0.02 0.04 0.05 0.04 0.05 0.04 0.04 0.06 0.06 0.06 0.08 0.07 0.06 0.07 0.07 0.07 0.06 0.07 0.08 0.10 0.08 0.07 0.07 0.06 0.06 0.07 0.07 0.07 0.06
0.00 0.00 0.00 0.00 0.00 0.00 0.00 0.00 0.01 0.00 0.00 0.01 0.00 0.00 0.00 0.00 0.00 0.00 0.01 0.01 0.01 0.02 0.02 0.02 0.02 0.03 0.03 0.05 0.05 0.05 0.06 0.07 0.07 0.07 0.08 0.08 0.07 0.10 0.11 0.09 0.07 0.06 0.06 0.05 0.05 0.06 0.07 0.06 0.06
0.00 0.00 0.00 0.00 0.00 0.00 0.00 0.03 0.04 0.01 0.00 0.00 0.00 0.00 0.00 0.00 0.00 0.00 0.00 0.01 0.01 0.02 0.02 0.02 0.01 0.02 0.02 0.03 0.02 0.03 0.05 0.06 0.06 0.06 0.07 0.06 0.07 0.08 0.07 0.06 0.06 0.05 0.04 0.05 0.05 0.05 0.05 0.06 0.06
0.00 0.01 0.01 0.00 0.00 0.00 0.01 0.04 0.04 0.01 0.00 0.00 0.00 0.00 0.00 0.00 0.00 0.00 0.00 0.00 0.01 0.01 0.01 0.01 0.00 0.01 0.01 0.01 0.01 0.02 0.04 0.04 0.05 0.06 0.06 0.05 0.04 0.04 0.03 0.05 0.06 0.05 0.04 0.06 0.04 0.04 0.04 0.04 0.05
0.00 0.00 0.01 0.01 0.01 0.01 0.01 0.02 0.04 0.01 0.00 0.00 0.00 0.00 0.00 0.00 0.00 0.00 0.00 0.00 0.00 0.00 0.00 0.00 0.00 0.01 0.01 0.01 0.01 0.02 0.03 0.04 0.04 0.05 0.05 0.05 0.05 0.04 0.03 0.03 0.05 0.06 0.06 0.06 0.05 0.05 0.05 0.05 0.05
0.00 0.00 0.01 0.01 0.01 0.02 0.01 0.01 0.02 0.01 0.00 0.00 0.00 0.00 0.00 0.00 0.00 0.00 0.00 0.00 0.00 0.00 0.00 0.00 0.00 0.01 0.01 0.01 0.01 0.01 0.02 0.02 0.03 0.06 0.06 0.04 0.05 0.05 0.04 0.02 0.04 0.06 0.07 0.07 0.06 0.05 0.04 0.04 0.05
0.00 0.00 0.03 0.04 0.03 0.01 0.01 0.00 0.00 0.00 0.00 0.00 0.00 0.00 0.00 0.00 0.00 0.00 0.00 0.00 0.00 0.00 0.00 0.00 0.00 0.00 0.00 0.01 0.01 0.01 0.01 0.02 0.02 0.03 0.05 0.04 0.04 0.04 0.04 0.03 0.03 0.04 0.06 0.06 0.06 0.06 0.06 0.06 0.05
0.00 0.01 0.02 0.04 0.03 0.03 0.01 0.01 0.00 0.00 0.00 0.00 0.00 0.01 0.01 0.01 0.00 0.00 0.00 0.00 0.00 0.00 0.00 0.00 0.01 0.01 0.00 0.00 0.01 0.01 0.01 0.01 0.02 0.02 0.02 0.04 0.03 0.03 0.03 0.02 0.02 0.03 0.03 0.04 0.07 0.05 0.05 0.06 0.05
0.00 0.00 0.00 0.02 0.02 0.02 0.02 0.01 0.01 0.01 0.01 0.01 0.00 0.00 0.01 0.00 0.00 0.00 0.00 0.00 0.00 0.00 0.00 0.00 0.01 0.01 0.00 0.00 0.01 0.01 0.01 0.01 0.01 0.01 0.01 0.02 0.03 0.04 0.04 0.03 0.03 0.04 0.05 0.05 0.06 0.06 0.05 0.05 0.04
0.00 0.00 0.00 0.00 0.01 0.02 0.02 0.02 0.04 0.03 0.01 0.00 0.00 0.00 0.00 0.00 0.00 0.00 0.01 0.01 0.01 0.00 0.00 0.00 0.01 0.00 0.00 0.00 0.01 0.01 0.01 0.01 0.01 0.01 0.01 0.01 0.02 0.03 0.03 0.03 0.03 0.05 0.06 0.05 0.05 0.06 0.05 0.05 0.06
0.00 0.00 0.00 0.00 0.01 0.04 0.03 0.04 0.06 0.02 0.01 0.02 0.02 0.00 0.00 0.00 0.00 0.00 0.01 0.01 0.00 0.01 0.01 0.00 0.00 0.00 0.00 0.01 0.01 0.01 0.01 0.00 0.01 0.01 0.01 0.01 0.02 0.04 0.04 0.04 0.04 0.05 0.06 0.07 0.07 0.06 0.06 0.05 0.05
0.00 0.00 0.00 0.00 0.00 0.01 0.03 0.04 0.06 0.03 0.01 0.00 0.00 0.00 0.00 0.00 0.00 0.00 0.00 0.01 0.01 0.01 0.01 0.00 0.00 0.00 0.00 0.00 0.00 0.00 0.01 0.01 0.01 0.01 0.01 0.01 0.02 0.03 0.05 0.04 0.04 0.04 0.06 0.08 0.07 0.06 0.05 0.04 0.04
MSLP
1003.34 1004.10 1005.07 1006.11 1007.06 1007.81 1008.30 1008.52 1008.56 1008.49 1008.45 1008.51 1008.70 1008.99 1009.33 1009.61 1009.77 1009.76 1009.60 1009.34 1009.07 1008.87 1008.80 1008.88 1009.06 1009.28 1009.44 1009.48 1009.35 1009.07 1008.70 1008.32 1008.00 1007.82 1007.80 1007.93 1008.17 1008.45 1008.72 1008.95 1009.14 1009.31 1009.48 1009.70 1009.97 1010.31 1010.68 1011.04 1011.36
1003.63 1004.55 1005.62 1006.70 1007.63 1008.30 1008.67 1008.76 1008.64 1008.44 1008.28 1008.23 1008.34 1008.57 1008.85 1009.10 1009.25 1009.25 1009.14 1008.96 1008.80 1008.73 1008.80 1009.01 1009.30 1009.61 1009.83 1009.91 1009.81 1009.56 1009.22 1008.88 1008.61 1008.47 1008.49 1008.64 1008.88 1009.13 1009.37 1009.55 1009.69 1009.81 1009.96 1010.17 1010.44 1010.77 1011.13 1011.46 1011.75
1003.97 1005.02 1006.17 1007.26 1008.15 1008.73 1008.99 1008.94 1008.70 1008.39 1008.13 1008.01 1008.04 1008.21 1008.43 1008.63 1008.74 1008.74 1008.64 1008.52 1008.44 1008.48 1008.67 1008.99 1009.40 1009.79 1010.09 1010.23 1010.20 1010.01 1009.74 1009.46 1009.26 1009.19 1009.25 1009.41 1009.64 1009.87 1010.05 1010.19 1010.28 1010.37 1010.50 1010.70 1010.97 1011.30 1011.64 1011.95 1012.19
1004.30 1005.43 1006.61 1007.68 1008.51 1009.01 1009.16 1009.03 1008.71 1008.34 1008.04 1007.88 1007.87 1007.99 1008.15 1008.29 1008.35 1008.30 1008.19 1008.08 1008.06 1008.17 1008.44 1008.86 1009.36 1009.85 1010.23 1010.45 1010.49 1010.38 1010.19 1010.01 1009.89 1009.88 1009.99 1010.18 1010.40 1010.60 1010.75 1010.85 1010.91 1010.98 1011.11 1011.31 1011.58 1011.90 1012.22 1012.49 1012.68
1004.54 1005.69 1006.85 1007.86 1008.62 1009.04 1009.13 1008.96 1008.63 1008.27 1007.99 1007.85 1007.85 1007.95 1008.07 1008.15 1008.13 1008.03 1007.88 1007.75 1007.73 1007.88 1008.21 1008.70 1009.26 1009.81 1010.26 1010.55 1010.67 1010.65 1010.55 1010.45 1010.42 1010.48 1010.64 1010.85 1011.08 1011.27 1011.41 1011.48 1011.54 1011.61 1011.74 1011.95 1012.22 1012.53 1012.82 1013.03 1013.16
1004.65 1005.75 1006.83 1007.76 1008.42 1008.78 1008.84 1008.69 1008.41 1008.14 1007.95 1007.89 1007.95 1008.07 1008.18 1008.21 1008.14 1007.96 1007.75 1007.59 1007.55 1007.70 1008.05 1008.56 1009.16 1009.76 1010.25 1010.59 1010.76 1010.81 1010.78 1010.76 1010.79 1010.91 1011.11 1011.36 1011.60 1011.80 1011.93 1012.02 1012.08 1012.17 1012.32 1012.54 1012.81 1013.10 1013.35 1013.51 1013.56
1004.62 1005.61 1006.57 1007.37 1007.94 1008.24 1008.31 1008.21 1008.05 1007.91 1007.87 1007.95 1008.11 1008.30 1008.43 1008.45 1008.33 1008.10 1007.84 1007.62 1007.55 1007.68 1008.02 1008.52 1009.12 1009.72 1010.22 1010.58 1010.79 1010.87 1010.88 1010.91 1010.99 1011.15 1011.38 1011.65 1011.90 1012.12 1012.27 1012.37 1012.46 1012.58 1012.75 1012.98 1013.25 1013.51 1013.71 1013.82 1013.80
1004.49 1005.34 1006.14 1006.80 1007.27 1007.52 1007.61 1007.59 1007.56 1007.60 1007.74 1007.98 1008.28 1008.56 1008.74 1008.78 1008.65 1008.39 1008.09 1007.84 1007.73 1007.82 1008.13 1008.60 1009.18 1009.74 1010.22 1010.57 1010.77 1010.85 1010.88 1010.93 1011.03 1011.21 1011.45 1011.73 1012.00 1012.23 1012.40 1012.52 1012.63 1012.77 1012.95 1013.19 1013.45 1013.69 1013.86 1013.91 1013.84
1004.34 1005.04 1005.67 1006.19 1006.55 1006.76 1006.86 1006.93 1007.03 1007.23 1007.54 1007.96 1008.40 1008.79 1009.05 1009.13 1009.02 1008.76 1008.45 1008.18 1008.04 1008.10 1008.37 1008.80 1009.32 1009.83 1010.26 1010.57 1010.74 1010.81 1010.83 1010.86 1010.96 1011.14 1011.39 1011.67 1011.94 1012.17 1012.34 1012.48 1012.60 1012.75 1012.94 1013.17 1013.41 1013.63 1013.77 1013.79 1013.69
1004.25 1004.81 1005.30 1005.68 1005.94 1006.10 1006.21 1006.34 1006.54 1006.87 1007.33 1007.87 1008.44 1008.93 1009.27 1009.41 1009.34 1009.12 1008.82 1008.56 1008.42 1008.45 1008.68 1009.05 1009.51 1009.97 1010.34 1010.59 1010.72 1010.76 1010.76 1010.78 1010.86 1011.03 1011.26 1011.52 1011.78 1012.01 1012.18 1012.31 1012.43 1012.56 1012.74 1012.95 1013.17 1013.37 1013.49 1013.50 1013.40
1004.29 1004.75 1005.12 1005.40 1005.58 1005.69 1005.78 1005.93 1006.18 1006.59 1007.12 1007.75 1008.39 1008.96 1009.37 1009.57 1009.57 1009.40 1009.15 1008.91 1008.78 1008.81 1009.00 1009.33 1009.73 1010.11 1010.43 1010.63 1010.72 1010.73 1010.70 1010.71 1010.77 1010.92 1011.13 1011.38 1011.62 1011.82 1011.98 1012.09 1012.18 1012.29 1012.44 1012.62 1012.82 1013.00 1013.11 1013.14 1013.06
1004.49 1004.90 1005.21 1005.41 1005.52 1005.57 1005.63 1005.76 1006.01 1006.42 1006.97 1007.61 1008.28 1008.87 1009.33 1009.59 1009.65 1009.55 1009.36 1009.18 1009.08 1009.10 1009.28 1009.56 1009.91 1010.24 1010.51 1010.67 1010.73 1010.72 1010.69 1010.68 1010.74 1010.87 1011.06 1011.28 1011.50 1011.68 1011.81 1011.89 1011.95 1012.03 1012.13 1012.28 1012.45 1012.62 1012.74 1012.78 1012.73
1004.86 1005.25 1005.53 1005.68 1005.74 1005.75 1005.76 1005.84 1006.03 1006.38 1006.87 1007.47 1008.10 1008.69 1009.16 1009.46 1009.59 1009.56 1009.45 1009.33 1009.27 1009.31 1009.47 1009.73 1010.03 1010.32 1010.55 1010.69 1010.74 1010.73 1010.70 1010.69 1010.74 1010.86 1011.04 1011.24 1011.44 1011.59 1011.70 1011.76 1011.79 1011.83 1011.90 1012.01 1012.15 1012.30 1012.43 1012.49 1012.48
1005.32 1005.72 1005.99 1006.13 1006.16 1006.12 1006.07 1006.07 1006.18 1006.42 1006.81 1007.31 1007.87 1008.41 1008.87 1009.21 1009.39 1009.45 1009.42 1009.37 1009.36 1009.43 1009.58 1009.82 1010.09 1010.35 1010.56 1010.69 1010.74 1010.73 1010.71 1010.71 1010.77 1010.88 1011.05 1011.24 1011.42 1011.56 1011.65 1011.69 1011.70 1011.72 1011.76 1011.84 1011.96 1012.09 1012.22 1012.30 1012.32
1005.79 1006.19 1006.47 1006.60 1006.61 1006.54 1006.44 1006.36 1006.35 1006.47 1006.73 1007.11 1007.58 1008.06 1008.51 1008.87 1009.12 1009.25 1009.31 1009.34 1009.38 1009.47 1009.63 1009.85 1010.10 1010.34 1010.53 1010.65 1010.71 1010.72 1010.71 1010.73 1010.78 1010.89 1011.04 1011.22 1011.39 1011.53 1011.62 1011.66 1011.67 1011.68 1011.70 1011.76 1011.86 1011.98 1012.10 1012.19 1012.23
1006.15 1006.55 1006.82 1006.95 1006.96 1006.87 1006.72 1006.57 1006.47 1006.47 1006.60 1006.86 1007.22 1007.65 1008.08 1008.47 1008.78 1009.00 1009.15 1009.26 1009.36 1009.48 1009.65 1009.86 1010.09 1010.31 1010.49 1010.61 1010.68 1010.70 1010.70 1010.71 1010.76 1010.85 1010.99 1011.15 1011.32 1011.46 1011.56 1011.62 1011.65 1011.67 1011.69 1011.74 1011.83 1011.93 1012.04 1012.12 1012.16
1006.35 1006.70 1006.95 1007.09 1007.11 1007.01 1006.84 1006.64 1006.45 1006.35 1006.37 1006.52 1006.80 1007.18 1007.60 1008.03 1008.41 1008.73 1008.97 1009.16 1009.33 1009.49 1009.67 1009.87 1010.08 1010.28 1010.45 1010.58 1010.65 1010.67 1010.67 1010.67 1010.70 1010.77 1010.88 1011.02 1011.18 1011.33 1011.45 1011.54 1011.60 1011.64 1011.68 1011.73 1011.80 1011.89 1011.98 1012.05 1012.08
1006.33 1006.63 1006.85 1006.99 1007.03 1006.95 1006.78 1006.54 1006.30 1006.12 1006.04 1006.10 1006.31 1006.65 1007.08 1007.55 1008.01 1008.43 1008.77 1009.06 1009.29 1009.49 1009.69 1009.89 1010.09 1010.28 1010.45 1010.57 1010.64 1010.66 1010.66 1010.64 1010.64 1010.67 1010.74 1010.86 1011.00 1011.15 1011.29 1011.41 1011.51 1011.58 1011.64 1011.70 1011.76 1011.83 1011.90 1011.95 1011.96
1006.12 1006.34 1006.55 1006.71 1006.78 1006.74 1006.59 1006.34 1006.06 1005.81 1005.65 1005.63 1005.77 1006.08 1006.52 1007.03 1007.57 1008.08 1008.53 1008.91 1009.22 1009.48 1009.70 1009.92 1010.12 1010.31 1010.47 1010.60 1010.67 1010.70 1010.68 1010.64 1010.61 1010.60 1010.62 1010.70 1010.81 1010.95 1011.10 1011.25 1011.38 1011.48 1011.57 1011.63 1011.69 1011.75 1011.79 1011.82 1011.82
1005.75 1005.94 1006.16 1006.36 1006.48 1006.50 1006.38 1006.14 1005.82 1005.51 1005.26 1005.15 1005.23 1005.49 1005.92 1006.46 1007.07 1007.67 1008.22 1008.70 1009.09 1009.41 1009.68 1009.92 1010.14 1010.34 1010.51 1010.65 1010.74 1010.78 1010.76 1010.71 1010.64 1010.59 1010.57 1010.60 1010.68 1010.80 1010.95 1011.10 1011.25 1011.38 1011.48 1011.55 1011.61 1011.65 1011.68 1011.70 1011.69
1005.32 1005.51 1005.78 1006.06 1006.27 1006.35 1006.27 1006.04 1005.69 1005.29 1004.95 1004.73 1004.71 1004.90 1005.29 1005.84 1006.49 1007.17 1007.81 1008.38 1008.86 1009.26 1009.58 1009.86 1010.11 1010.34 1010.55 1010.72 1010.84 1010.90 1010.90 1010.85 1010.76 1010.68 1010.62 1010.61 1010.65 1010.73 1010.86 1011.01 1011.16 1011.29 1011.40 1011.47 1011.52 1011.56 1011.58 1011.60 1011.61
1004.89 1005.16 1005.52 1005.91 1006.23 1006.40 1006.37 1006.14 1005.74 1005.25 1004.78 1004.42 1004.27 1004.35 1004.67 1005.19 1005.86 1006.59 1007.30 1007.96 1008.53 1009.00 1009.40 1009.73 1010.03 1010.31 1010.55 1010.77 1010.93 1011.03 1011.07 1011.04 1010.96 1010.87 1010.78 1010.73 1010.73 1010.78 1010.87 1011.00 1011.13 1011.25 1011.35 1011.42 1011.46 1011.49 1011.51 1011.54 1011.57
1004.54 1004.92 1005.43 1005.96 1006.41 1006.67 1006.69 1006.45 1005.99 1005.39 1004.78 1004.26 1003.95 1003.89 1004.10 1004.56 1005.21 1005.96 1006.73 1007.47 1008.12 1008.67 1009.14 1009.54 1009.90 1010.22 1010.52 1010.79 1011.00 1011.16 1011.24 1011.25 1011.20 1011.11 1011.02 1010.95 1010.91 1010.92 1010.98 1011.06 1011.16 1011.26 1011.34 1011.39 1011.42 1011.45 1011.47 1011.51 1011.56
1004.28 1004.81 1005.48 1006.17 1006.75 1007.11 1007.18 1006.94 1006.42 1005.72 1004.96 1004.27 1003.78 1003.57 1003.65 1004.02 1004.62 1005.37 1006.18 1006.97 1007.70 1008.33 1008.87 1009.34 1009.75 1010.13 1010.47 1010.79 1011.06 1011.26 1011.40 1011.45 1011.44 1011.38 1011.29 1011.21 1011.15 1011.12 1011.14 1011.18 1011.25 1011.31 1011.35 1011.39 1011.40 1011.42 1011.44 1011.49 1011.56
1004.11 1004.79 1005.62 1006.45 1007.15 1007.61 1007.74 1007.50 1006.95 1006.16 1005.28 1004.45 1003.81 1003.44 1003.39 1003.66 1004.20 1004.93 1005.75 1006.59 1007.37 1008.07 1008.68 1009.21 1009.67 1010.08 1010.46 1010.81 1011.11 1011.36 1011.54 1011.63 1011.66 1011.62 1011.55 1011.47 1011.40 1011.35 1011.33 1011.33 1011.35 1011.38 1011.39 1011.39 1011.39 1011.39 1011.41 1011.45 1011.53
1004.00 1004.80 1005.73 1006.67 1007.48 1008.02 1008.21 1008.01 1007.46 1006.64 1005.70 1004.78 1004.03 1003.55 1003.39 1003.57 1004.05 1004.75 1005.57 1006.43 1007.26 1008.01 1008.67 1009.24 1009.73 1010.17 1010.56 1010.91 1011.23 1011.48 1011.68 1011.80 1011.85 1011.83 1011.78 1011.71 1011.63 1011.57 1011.52 1011.49 1011.48 1011.46 1011.44 1011.41 1011.38 1011.36 1011.36 1011.39 1011.46
1003.93 1004.76 1005.74 1006.74 1007.61 1008.23 1008.49 1008.36 1007.87 1007.10 1006.17 1005.25 1004.46 1003.92 1003.71 1003.83 1004.25 1004.91 1005.72 1006.59 1007.44 1008.23 1008.92 1009.51 1010.02 1010.45 1010.83 1011.16 1011.45 1011.68 1011.86 1011.97 1012.03 1012.02 1011.98 1011.91 1011.84 1011.77 1011.71 1011.66 1011.61 1011.57 1011.51 1011.46 1011.40 1011.35 1011.32 1011.32 1011.36
1003.87 1004.65 1005.59 1006.58 1007.47 1008.14 1008.49 1008.48 1008.12 1007.47 1006.66 1005.82 1005.09 1004.58 1004.36 1004.45 1004.85 1005.48 1006.26 1007.12 1007.98 1008.77 1009.48 1010.08 1010.57 1010.98 1011.31 1011.59 1011.82 1012.00 1012.13 1012.20 1012.23 1012.21 1012.17 1012.10 1012.03 1011.96 1011.90 1011.84 1011.78 1011.71 1011.64 1011.55 1011.46 1011.38 1011.32 1011.28 1011.28
1003.81 1004.46 1005.28 1006.19 1007.05 1007.76 1008.20 1008.34 1008.17 1007.74 1007.14 1006.48 1005.90 1005.50 1005.33 1005.44 1005.82 1006.43 1007.18 1008.01 1008.85 1009.63 1010.32 1010.90 1011.37 1011.74 1012.02 1012.22 1012.37 1012.46 1012.51 1012.51 1012.49 1012.44 1012.38 1012.31 1012.24 1012.17 1012.11 1012.06 1011.99 1011.92 1011.83 1011.73 1011.62 1011.51 1011.41 1011.34 1011.29
1003.79 1004.23 1004.87 1005.64 1006.44 1007.15 1007.69 1008.00 1008.07 1007.91 1007.59 1007.20 1006.84 1006.60 1006.54 1006.70 1007.08 1007.66 1008.37 1009.15 1009.94 1010.69 1011.35 1011.90 1012.33 1012.65 1012.86 1012.98 1013.04 1013.03 1012.98 1012.90 1012.81 1012.71 1012.62 1012.53 1012.46 1012.41 1012.36 1012.32 1012.26 1012.19 1012.11 1012.00 1011.88 1011.75 1011.63 1011.52 1011.43
Thickness
5836 5837 5833 5824 5803 5791 5793 5805 5812 5809 5810 5818 5820 5813 5800 5791 5781 5769 5795 5806 5806 5803 5800 5798 5797 5796 5796 5796 5796 5796 5795 5795 5795 5794 5794 5795 5794 5793 5793 5792 5790 5788 5786 5784 5783 5781 5780 5779 5777
5846 5844 5832 5817 5797 5786 5790 5808 5808 5810 5818 5823 5819 5812 5801 5793 5798 5794 5799 5804 5806 5804 5801 5799 5797 5797 5795 5794 5794 5794 5794 5794 5794 5793 5792 5792 5792 5791 5790 5789 5788 5786 5784 5782 5781 5779 5778 5777 5775
5846 5847 5826 5813 5801 5795 5795 5811 5813 5819 5826 5821 5813 5810 5799 5791 5797 5797 5803 5807 5806 5802 5799 5797 5797 5796 5794 5793 5792 5792 5792 5792 5792 5791 5791 5790 5789 5789 5788 5786 5785 5783 5782 5781 5779 5778 5777 5776 5774
5844 5838 5829 5813 5802 5814 5816 5819 5823 5820 5821 5821 5813 5800 5799 5804 5803 5804 5808 5808 5805 5802 5799 5796 5795 5793 5793 5792 5791 5790 5790 5791 5790 5789 5788 5788 5787 5787 5785 5784 5783 5782 5780 5779 5778 5777 5776 5775 5774
5845 5826 5813 5809 5812 5823 5830 5832 5830 5817 5814 5815 5810 5793 5789 5804 5810 5809 5808 5808 5805 5802 5799 5794 5792 5792 5791 5791 5790 5789 5789 5789 5788 5787 5786 5786 5785 5784 5784 5783 5782 5780 5779 5777 5776 5775 5775 5774 5773
5832 5828 5810 5807 5816 5828 5832 5836 5830 5819 5816 5815 5808 5794 5790 5805 5806 5807 5809 5808 5807 5803 5798 5793 5792 5791 5790 5790 5789 5788 5788 5788 5787 5786 5785 5784 5783 5783 5782 5781 5780 5778 5778 5777 5775 5774 5774 5774 5773
5830 5823 5819 5822 5819 5821 5830 5839 5830 5821 5815 5815 5814 5796 5793 5802 5808 5809 5809 5809 5808 5805 5800 5795 5792 5791 5789 5789 5788 5787 5787 5787 5786 5785 5784 5784 5783 5781 5780 5779 5778 5778 5777 5776 5775 5774 5773 5773 5772
5855 5838 5829 5828 5822 5820 5838 5840 5837 5827 5818 5828 5824 5799 5791 5802 5811 5811 5809 5808 5806 5804 5802 5798 5796 5793 5791 5789 5787 5787 5786 5786 5786 5785 5784 5784 5782 5781 5780 5779 5778 5777 5776 5776 5775 5774 5773 5773 5772
5866 5838 5825 5831 5829 5830 5843 5837 5837 5842 5831 5827 5826 5816 5810 5813 5813 5808 5804 5803 5801 5801 5802 5802 5800 5797 5795 5792 5789 5788 5787 5786 5786 5785 5785 5785 5784 5782 5780 5779 5778 5777 5777 5776 5775 5774 5774 5773 5773
5861 5834 5835 5851 5852 5845 5845 5840 5838 5834 5823 5817 5815 5815 5817 5814 5809 5803 5799 5797 5796 5797 5801 5803 5802 5800 5798 5796 5792 5790 5790 5788 5787 5787 5786 5786 5786 5785 5782 5780 5779 5778 5777 5776 5776 5775 5774 5774 5774
5867 5849 5857 5862 5864 5858 5848 5844 5847 5832 5817 5816 5811 5810 5813 5812 5808 5804 5801 5799 5798 5800 5802 5803 5802 5801 5800 5798 5796 5794 5793 5790 5789 5789 5788 5787 5787 5786 5784 5782 5780 5779 5778 5777 5777 5776 5776 5777 5776
5868 5865 5868 5866 5869 5861 5853 5849 5842 5837 5830 5833 5828 5822 5816 5812 5809 5807 5804 5802 5802 5802 5802 5803 5803 5801 5800 5799 5798 5797 5795 5793 5791 5790 5790 5789 5788 5787 5786 5785 5783 5782 5782 5781 5780 5779 5779 5779 5778
5867 5867 5872 5873 5870 5864 5858 5850 5844 5838 5843 5841 5833 5825 5818 5815 5813 5813 5811 5808 5805 5803 5803 5803 5802 5800 5799 5799 5799 5799 5797 5795 5793 5791 5790 5790 5788 5787 5787 5785 5784 5784 5783 5782 5782 5781 5780 5779 5779
5871 5870 5870 5871 5867 5866 5854 5849 5845 5840 5846 5838 5831 5824 5822 5819 5817 5814 5811 5808 5806 5805 5804 5804 5802 5800 5799 5798 5798 5799 5798 5796 5794 5792 5791 5790 5789 5787 5786 5785 5785 5785 5784 5783 5783 5782 5781 5780 5779
5872 5857 5857 5865 5866 5864 5855 5836 5839 5846 5847 5836 5831 5827 5824 5823 5821 5817 5815 5812 5810 5808 5807 5805 5804 5802 5800 5799 5799 5800 5799 5797 5795 5793 5791 5790 5789 5788 5787 5786 5785 5785 5784 5784 5783 5782 5781 5780 5779
5858 5841 5829 5852 5865 5865 5846 5819 5843 5853 5846 5836 5833 5829 5825 5824 5824 5823 5821 5817 5816 5812 5809 5807 5808 5803 5800 5800 5800 5801 5800 5798 5796 5794 5792 5791 5790 5789 5788 5786 5785 5785 5785 5785 5783 5781 5780 5778 5777
5836 5825 5825 5841 5863 5864 5849 5830 5848 5858 5849 5839 5836 5833 5829 5826 5826 5826 5825 5821 5819 5815 5811 5808 5808 5804 5802 5801 5801 5800 5800 5798 5797 5795 5793 5792 5790 5789 5789 5787 5786 5786 5786 5784 5784 5781 5779 5777 5776
5826 5828 5831 5837 5858 5862 5850 5843 5851 5860 5855 5846 5841 5837 5833 5828 5827 5830 5828 5826 5822 5818 5814 5810 5808 5806 5804 5803 5801 5800 5799 5798 5797 5795 5794 5792 5791 5790 5789 5788 5787 5787 5785 5784 5782 5780 5780 5778 5777
5854 5844 5842 5852 5868 5861 5851 5847 5852 5860 5856 5849 5846 5842 5837 5834 5836 5835 5832 5829 5823 5818 5814 5811 5807 5806 5804 5802 5799 5797 5796 5797 5797 5796 5795 5793 5792 5791 5789 5789 5788 5787 5785 5784 5783 5781 5778 5777 5778
5862 5851 5848 5858 5874 5864 5852 5848 5856 5862 5859 5857 5852 5847 5844 5838 5836 5835 5833 5830 5825 5820 5816 5812 5809 5807 5805 5804 5802 5801 5800 5799 5799 5798 5796 5794 5793 5791 5791 5789 5788 5788 5786 5784 5784 5781 5777 5777 5778
5859 5856 5855 5854 5865 5867 5849 5838 5846 5859 5867 5866 5863 5859 5853 5847 5840 5836 5834 5832 5829 5823 5819 5817 5813 5810 5808 5807 5805 5803 5801 5799 5798 5796 5795 5795 5794 5793 5792 5790 5790 5789 5788 5784 5783 5781 5778 5774 5776
5849 5868 5867 5859 5847 5837 5840 5812 5834 5850 5855 5860 5862 5862 5858 5855 5849 5843 5839 5835 5833 5829 5825 5821 5816 5813 5810 5808 5806 5801 5797 5795 5796 5797 5796 5796 5795 5794 5793 5792 5791 5789 5788 5786 5785 5783 5781 5777 5773
5858 5873 5866 5858 5848 5836 5838 5824 5831 5851 5846 5854 5862 5865 5865 5862 5856 5849 5845 5841 5839 5835 5830 5824 5819 5815 5812 5810 5808 5804 5801 5800 5800 5799 5797 5796 5796 5795 5794 5793 5791 5790 5789 5787 5785 5784 5782 5780 5776
5871 5863 5857 5852 5838 5811 5829 5827 5825 5847 5854 5860 5864 5868 5869 5867 5863 5856 5852 5847 5843 5840 5834 5828 5821 5816 5814 5812 5809 5806 5802 5800 5798 5797 5796 5796 5796 5796 5796 5794 5792 5791 5789 5787 5785 5783 5782 5780 5777
5862 5838 5813 5804 5800 5804 5836 5833 5839 5863 5874 5873 5869 5869 5871 5870 5865 5858 5852 5847 5843 5840 5836 5831 5824 5818 5816 5813 5810 5808 5805 5802 5799 5798 5797 5796 5796 5795 5795 5795 5793 5791 5789 5788 5786 5783 5781 5780 5777
5852 5842 5811 5791 5789 5808 5833 5826 5849 5876 5881 5881 5878 5875 5872 5869 5867 5861 5857 5851 5846 5843 5839 5834 5826 5821 5818 5815 5812 5811 5808 5805 5803 5801 5800 5798 5798 5797 5797 5795 5793 5791 5790 5788 5786 5783 5781 5779 5777
5844 5843 5852 5830 5816 5806 5819 5837 5855 5874 5873 5874 5873 5872 5867 5866 5867 5864 5860 5855 5850 5846 5841 5837 5830 5824 5821 5818 5814 5811 5810 5807 5805 5803 5802 5800 5800 5799 5798 5796 5793 5791 5789 5787 5785 5781 5779 5778 5776
5858 5853 5842 5825 5800 5791 5806 5818 5829 5845 5856 5863 5865 5865 5866 5867 5867 5865 5862 5858 5853 5849 5844 5840 5833 5827 5823 5820 5817 5814 5811 5809 5806 5804 5801 5800 5799 5799 5797 5795 5793 5791 5788 5786 5784 5781 5780 5776 5774
5844 5842 5839 5832 5823 5800 5790 5810 5850 5848 5853 5860 5863 5866 5866 5866 5864 5862 5860 5859 5855 5850 5845 5839 5834 5828 5823 5821 5818 5815 5811 5809 5807 5804 5802 5800 5798 5797 5795 5793 5791 5789 5787 5785 5782 5780 5778 5774 5771
5851 5845 5839 5817 5811 5815 5804 5808 5860 5861 5861 5862 5863 5865 5867 5866 5865 5862 5859 5855 5851 5847 5843 5838 5834 5828 5824 5821 5817 5814 5811 5809 5806 5804 5802 5800 5797 5796 5793 5791 5789 5787 5785 5783 5779 5776 5774 5771 5768